TimeCEST,TemperatureF,Dew PointF,Humidity,Sea Level PressureIn,VisibilityMPH,Wind Direction,Wind SpeedMPH,Gust SpeedMPH,PrecipitationIn,Events,Conditions,WindDirDegrees,DateUTC
12:00 AM,61,56,77,30.13,22,NNW,4.5,,,,Partly Cloudy,340,2013-07-14 22:00:00
12:00 AM,60.8,55.4,82,30.12,6.2,North,5.8,-,N/A,,Scattered Clouds,350,2013-07-14 22:00:00
12:30 AM,62.6,55.4,77,30.12,6.2,NNW,8.1,-,N/A,,Scattered Clouds,340,2013-07-14 22:30:00
1:00 AM,61,56,79,30.13,19,NNW,8.9,,,,Partly Cloudy,340,2013-07-14 23:00:00
1:00 AM,60.8,55.4,82,30.12,6.2,NNW,11.5,-,N/A,,Mostly Cloudy,340,2013-07-14 23:00:00
1:30 AM,60.8,55.4,82,30.12,-9999.0,NNW,9.2,-,N/A,,Clear,340,2013-07-14 23:30:00
2:00 AM,59,55,84,30.13,16,NW,1.2,,,,Mostly Cloudy,310,2013-07-15 00:00:00
2:00 AM,59.0,55.4,88,30.12,-9999.0,NW,5.8,-,N/A,,Clear,320,2013-07-15 00:00:00
2:30 AM,57.2,55.4,94,30.12,-9999.0,West,4.6,-,N/A,,Clear,260,2013-07-15 00:30:00
3:00 AM,59,55,83,30.13,12,WNW,6.7,,,,Mostly Cloudy,300,2013-07-15 01:00:00
3:00 AM,59.0,55.4,88,30.12,-9999.0,West,5.8,-,N/A,,Clear,280,2013-07-15 01:00:00
3:30 AM,59.0,53.6,82,30.12,6.2,WNW,8.1,-,N/A,,Partly Cloudy,300,2013-07-15 01:30:00
4:00 AM,57,53,83,30.13,12,NW,4.5,,,,Scattered Clouds,320,2013-07-15 02:00:00
4:00 AM,57.2,53.6,88,30.12,6.2,WNW,6.9,-,N/A,,Partly Cloudy,300,2013-07-15 02:00:00
4:30 AM,55.4,51.8,88,30.12,-9999.0,NW,5.8,-,N/A,,Clear,310,2013-07-15 02:30:00
5:00 AM,54,51,86,30.14,12,NNW,2.2,,,,Mostly Cloudy,340,2013-07-15 03:00:00
5:00 AM,53.6,51.8,94,30.12,-9999.0,WNW,6.9,-,N/A,,Clear,300,2013-07-15 03:00:00
5:30 AM,55.4,51.8,88,30.12,6.2,NW,8.1,-,N/A,,Partly Cloudy,310,2013-07-15 03:30:00
6:00 AM,55,50,79,30.14,19,WNW,4.5,,,,Scattered Clouds,300,2013-07-15 04:00:00
6:00 AM,55.4,50.0,82,30.12,6.2,WNW,5.8,-,N/A,,Partly Cloudy,290,2013-07-15 04:00:00
6:30 AM,53.6,50.0,88,30.12,6.2,WNW,4.6,-,N/A,,Partly Cloudy,290,2013-07-15 04:30:00
7:00 AM,57,51,74,30.14,19,WSW,6.7,,,,Scattered Clouds,250,2013-07-15 05:00:00
7:00 AM,57.2,51.8,82,30.12,-9999.0,WSW,3.5,-,N/A,,Clear,250,2013-07-15 05:00:00
7:30 AM,59.0,51.8,77,30.15,6.2,West,6.9,-,N/A,,Partly Cloudy,280,2013-07-15 05:30:00
8:00 AM,60,50,61,30.14,19,NNW,11.2,,,,Scattered Clouds,330,2013-07-15 06:00:00
8:00 AM,60.8,50.0,68,30.15,6.2,NNW,12.7,-,N/A,,Partly Cloudy,330,2013-07-15 06:00:00
8:30 AM,60.8,50.0,68,30.15,6.2,NNW,11.5,-,N/A,,Scattered Clouds,340,2013-07-15 06:30:00
9:00 AM,60,50,61,30.15,22,NNW,8.9,,,,Partly Cloudy,330,2013-07-15 07:00:00
9:00 AM,60.8,50.0,68,30.15,6.2,NW,10.4,-,N/A,,Scattered Clouds,320,2013-07-15 07:00:00
9:30 AM,62.6,51.8,68,30.15,6.2,NNW,11.5,-,N/A,,Scattered Clouds,330,2013-07-15 07:30:00
10:00 AM,62,51,58,30.15,22,NW,6.7,,,,Partly Cloudy,320,2013-07-15 08:00:00
10:00 AM,62.6,50.0,63,30.15,6.2,NW,8.1,-,N/A,,Scattered Clouds,320,2013-07-15 08:00:00
10:30 AM,62.6,51.8,68,30.15,6.2,WNW,6.9,-,N/A,,Scattered Clouds,290,2013-07-15 08:30:00
11:00 AM,64,49,47,30.15,25,NNW,6.7,,,,Partly Cloudy,330,2013-07-15 09:00:00
11:00 AM,62.6,48.2,59,30.15,6.2,West,6.9,-,N/A,,Scattered Clouds,280,2013-07-15 09:00:00
11:30 AM,64.4,51.8,64,30.15,6.2,NW,10.4,-,N/A,,Scattered Clouds,320,2013-07-15 09:30:00
12:00 PM,65,49,46,30.15,31,NNW,8.9,,,,Partly Cloudy,340,2013-07-15 10:00:00
12:00 PM,64.4,48.2,56,30.15,6.2,NW,9.2,-,N/A,,Scattered Clouds,310,2013-07-15 10:00:00
12:30 PM,66.2,50.0,56,30.15,6.2,WNW,9.2,-,N/A,,Scattered Clouds,300,2013-07-15 10:30:00
1:00 PM,67,49,42,30.14,31,NNW,8.9,,,,Scattered Clouds,340,2013-07-15 11:00:00
1:00 PM,68.0,50.0,52,30.15,6.2,NW,10.4,-,N/A,,Partly Cloudy,320,2013-07-15 11:00:00
1:30 PM,68.0,48.2,49,30.15,6.2,NW,13.8,-,N/A,,Partly Cloudy,320,2013-07-15 11:30:00
2:00 PM,68,50,41,30.14,37,North,11.2,,,,Partly Cloudy,350,2013-07-15 12:00:00
2:00 PM,69.8,51.8,53,30.15,6.2,North,13.8,-,N/A,,Scattered Clouds,350,2013-07-15 12:00:00
2:30 PM,68.0,48.2,49,30.15,6.2,NW,13.8,-,N/A,,Scattered Clouds,320,2013-07-15 12:30:00
3:00 PM,70,48,35,30.14,37,NNW,11.2,,,,Partly Cloudy,340,2013-07-15 13:00:00
3:00 PM,69.8,48.2,46,30.15,6.2,North,12.7,-,N/A,,Scattered Clouds,350,2013-07-15 13:00:00
3:30 PM,69.8,50.0,49,30.15,6.2,NNW,11.5,-,N/A,,Scattered Clouds,340,2013-07-15 13:30:00
4:00 PM,69,49,39,30.14,37,North,13.4,,,,Partly Cloudy,350,2013-07-15 14:00:00
4:00 PM,69.8,50.0,49,30.15,6.2,North,13.8,-,N/A,,Scattered Clouds,360,2013-07-15 14:00:00
4:30 PM,68.0,48.2,49,30.15,6.2,North,12.7,-,N/A,,Scattered Clouds,350,2013-07-15 14:30:00
5:00 PM,69,50,40,30.14,37,North,4.6,,,,Partly Cloudy,0,2013-07-15 15:00:00
5:00 PM,68.0,50.0,52,30.15,6.2,North,11.5,-,N/A,,Scattered Clouds,360,2013-07-15 15:00:00
5:30 PM,68.0,50.0,52,30.15,6.2,North,13.8,-,N/A,,Partly Cloudy,350,2013-07-15 15:30:00
6:00 PM,69,49,38,30.14,37,North,11.2,,,,Scattered Clouds,0,2013-07-15 16:00:00
6:00 PM,68.0,50.0,52,30.18,6.2,North,13.8,-,N/A,,Partly Cloudy,360,2013-07-15 16:00:00
6:30 PM,68.0,50.0,52,30.18,6.2,North,15.0,-,N/A,,Partly Cloudy,10,2013-07-15 16:30:00
7:00 PM,67,49,42,30.16,37,North,11.2,,,,Scattered Clouds,10,2013-07-15 17:00:00
7:00 PM,68.0,50.0,52,30.18,6.2,North,12.7,-,N/A,,Partly Cloudy,10,2013-07-15 17:00:00
7:30 PM,66.2,48.2,52,30.18,-9999.0,North,11.5,-,N/A,,Clear,10,2013-07-15 17:30:00
8:00 PM,66,49,43,30.17,37,North,8.9,,,,Scattered Clouds,10,2013-07-15 18:00:00
8:00 PM,66.2,50.0,56,30.18,-9999.0,North,9.2,-,N/A,,Clear,10,2013-07-15 18:00:00
8:30 PM,64.4,48.2,56,30.18,-9999.0,North,6.9,-,N/A,,Clear,10,2013-07-15 18:30:00
9:00 PM,62,49,51,30.19,37,NNE,6.7,,,,Scattered Clouds,30,2013-07-15 19:00:00
9:00 PM,62.6,48.2,59,30.21,-9999.0,NNE,5.8,-,N/A,,Clear,30,2013-07-15 19:00:00
9:30 PM,62.6,48.2,59,30.21,-9999.0,NNE,4.6,-,N/A,,Clear,30,2013-07-15 19:30:00
10:00 PM,61,48,53,30.22,37,NE,2.3,,,,Scattered Clouds,50,2013-07-15 20:00:00
10:00 PM,60.8,48.2,63,30.21,-9999.0,NE,3.5,-,N/A,,Clear,50,2013-07-15 20:00:00
10:30 PM,57.2,48.2,72,30.21,-9999.0,Variable,2.3,-,N/A,,Clear,0,2013-07-15 20:30:00
11:00 PM,51.8,46.4,82,30.21,-9999.0,SSW,3.5,-,N/A,,Clear,200,2013-07-15 21:00:00
11:30 PM,53.6,48.2,82,30.21,-9999.0,SSW,4.6,-,N/A,,Clear,200,2013-07-15 21:30:00